| time (UTC) | temp F | wind direction | speed MPH | gust MPH | rain 1hr in | rain 24hr in | rain mn in | humidity % | barometer mb |
| 20260506134708 | 41 | 72 | 4.0 | 6.0 | 0.00 | 0.00 | 0.00 | 67 | 1011.7 |
| 20260506134204 | 40 | 67 | 5.0 | 8.0 | 0.00 | 0.00 | 0.00 | 69 | 1011.4 |
| 20260506133701 | 38 | 48 | 6.0 | 10.0 | 0.00 | 0.00 | 0.00 | 71 | 1011.1 |
| 20260506133157 | 37 | 63 | 5.0 | 6.0 | 0.00 | 0.00 | 0.00 | 72 | 1011.2 |
| 20260506132655 | 37 | 62 | 4.0 | 6.0 | 0.00 | 0.00 | 0.00 | 72 | 1010.9 |
| 20260506132152 | 37 | 82 | 4.0 | 6.0 | 0.00 | 0.00 | 0.00 | 73 | 1011.0 |
| 20260506131649 | 37 | 117 | 6.0 | 8.0 | 0.00 | 0.00 | 0.00 | 73 | 1010.9 |
| 20260506131145 | 37 | 60 | 3.0 | 6.0 | 0.00 | 0.00 | 0.00 | 72 | 1010.8 |
| 20260506130642 | 38 | 70 | 5.0 | 7.0 | 0.00 | 0.00 | 0.00 | 71 | 1011.0 |
| 20260506130139 | 38 | 60 | 4.0 | 9.0 | 0.00 | 0.00 | 0.00 | 71 | 1010.5 |
| 20260506125637 | 37 | 56 | 5.0 | 7.0 | 0.00 | 0.00 | 0.00 | 72 | 1010.8 |
| 20260506125134 | 37 | 59 | 9.0 | 10.0 | 0.00 | 0.00 | 0.00 | 72 | 1010.8 |
| 20260506124632 | 38 | 70 | 6.0 | 9.0 | 0.00 | 0.00 | 0.00 | 71 | 1010.7 |
| 20260506124130 | 38 | 89 | 4.0 | 9.0 | 0.00 | 0.00 | 0.00 | 71 | 1010.4 |
| 20260506123628 | 38 | 111 | 4.0 | 8.0 | 0.00 | 0.00 | 0.00 | 70 | 1010.5 |
| 20260506123127 | 38 | 59 | 5.0 | 9.0 | 0.00 | 0.00 | 0.00 | 69 | 1010.4 |
| 20260506122623 | 38 | 109 | 6.0 | 11.0 | 0.00 | 0.00 | 0.00 | 70 | 1010.4 |
| 20260506122120 | 38 | 74 | 5.0 | 8.0 | 0.00 | 0.00 | 0.00 | 71 | 1010.3 |
| 20260506121618 | 38 | 70 | 4.0 | 8.0 | 0.00 | 0.00 | 0.00 | 71 | 1010.2 |
| 20260506121114 | 38 | 77 | 8.0 | 12.0 | 0.00 | 0.00 | 0.00 | 71 | 1010.1 |
| 20260506120613 | 38 | 80 | 2.0 | 11.0 | 0.00 | 0.00 | 0.00 | 71 | 1010.2 |
| 20260506120110 | 37 | 112 | 3.0 | 8.0 | 0.00 | 0.00 | 0.00 | 73 | 1009.8 |
| 20260506115608 | 37 | 37 | 6.0 | 7.0 | 0.00 | 0.00 | 0.00 | 73 | 1010.1 |
| 20260506115106 | 37 | 51 | 5.0 | 8.0 | 0.00 | 0.00 | 0.00 | 74 | 1010.1 |
| 20260506114603 | 36 | 73 | 5.0 | 9.0 | 0.00 | 0.00 | 0.00 | 76 | 1009.9 |
| 20260506114101 | 36 | 121 | 4.0 | 5.0 | 0.00 | 0.00 | 0.00 | 76 | 1009.5 |
| 20260506113558 | 36 | 94 | 4.0 | 6.0 | 0.00 | 0.00 | 0.00 | 77 | 1009.6 |
| 20260506113055 | 36 | 70 | 3.0 | 4.0 | 0.00 | 0.00 | 0.00 | 77 | 1009.7 |
| 20260506112551 | 36 | 97 | 3.0 | 4.0 | 0.00 | 0.00 | 0.00 | 77 | 1009.7 |
| 20260506112049 | 36 | 63 | 4.0 | 5.0 | 0.00 | 0.00 | 0.00 | 76 | 1009.7 |
| 20260506111547 | 37 | 103 | 3.0 | 6.0 | 0.00 | 0.00 | 0.00 | 76 | 1009.4 |
| 20260506111044 | 36 | 116 | 4.0 | 5.0 | 0.00 | 0.00 | 0.00 | 77 | 1009.7 |
| 20260506110541 | 37 | 85 | 2.0 | 3.0 | 0.00 | 0.00 | 0.00 | 75 | 1009.5 |
| 20260506110038 | 37 | 92 | 1.0 | 4.0 | 0.00 | 0.00 | 0.00 | 75 | 1009.4 |
| 20260506105534 | 37 | 123 | 2.0 | 5.0 | 0.00 | 0.00 | 0.00 | 75 | 1009.5 |
| 20260506105032 | 37 | 125 | 3.0 | 3.0 | 0.00 | 0.00 | 0.00 | 75 | 1009.4 |
| 20260506104530 | 37 | 58 | 3.0 | 4.0 | 0.00 | 0.00 | 0.00 | 75 | 1009.4 |
| 20260506104027 | 37 | 121 | 3.0 | 5.0 | 0.00 | 0.00 | 0.00 | 75 | 1009.4 |
| 20260506103524 | 37 | 48 | 3.0 | 4.0 | 0.00 | 0.00 | 0.00 | 75 | 1009.5 |
| 20260506103021 | 37 | 104 | 3.0 | 4.0 | 0.00 | 0.00 | 0.00 | 75 | 1009.5 |
| 20260506102520 | 38 | 101 | 3.0 | 3.0 | 0.00 | 0.00 | 0.00 | 75 | 1009.5 |
| 20260506102017 | 38 | 81 | 2.0 | 6.0 | 0.00 | 0.00 | 0.00 | 75 | 1009.1 |
| 20260506101514 | 38 | 107 | 2.0 | 4.0 | 0.00 | 0.00 | 0.00 | 74 | 1009.1 |
| 20260506101011 | 38 | 113 | 2.0 | 5.0 | 0.00 | 0.00 | 0.00 | 74 | 1009.4 |
| 20260506100509 | 38 | 106 | 3.0 | 4.0 | 0.00 | 0.00 | 0.00 | 75 | 1009.2 |
| 20260506100007 | 38 | 104 | 2.0 | 3.0 | 0.00 | 0.00 | 0.00 | 75 | 1009.4 |
| 20260506095506 | 38 | 117 | 4.0 | 4.0 | 0.00 | 0.00 | 0.00 | 75 | 1009.2 |
| 20260506095001 | 39 | 123 | 3.0 | 3.0 | 0.00 | 0.00 | 0.00 | 74 | 1009.2 |
| 20260506094459 | 39 | 100 | 3.0 | 5.0 | 0.00 | 0.00 | 0.00 | 73 | 1009.2 |
| 20260506093956 | 39 | 67 | 3.0 | 4.0 | 0.00 | 0.00 | 0.00 | 74 | 1008.9 |
| 20260506093455 | 39 | 75 | 2.0 | 5.0 | 0.00 | 0.00 | 0.00 | 73 | 1009.0 |
| 20260506092952 | 39 | 115 | 1.0 | 4.0 | 0.00 | 0.00 | 0.00 | 74 | 1009.1 |
| 20260506092450 | 39 | 69 | 4.0 | 4.0 | 0.00 | 0.00 | 0.00 | 74 | 1009.0 |
| 20260506091946 | 39 | 106 | 4.0 | 5.0 | 0.00 | 0.00 | 0.00 | 75 | 1009.0 |
| 20260506091445 | 40 | 98 | 2.0 | 2.0 | 0.00 | 0.00 | 0.00 | 74 | 1009.0 |
| 20260506090942 | 40 | 86 | 2.0 | 3.0 | 0.00 | 0.00 | 0.00 | 74 | 1009.1 |
| 20260506090440 | 40 | 120 | 3.0 | 4.0 | 0.00 | 0.00 | 0.00 | 74 | 1009.0 |
| 20260506085935 | 40 | 88 | 2.0 | 4.0 | 0.00 | 0.00 | 0.00 | 74 | 1008.9 |
| 20260506085432 | 40 | 68 | 3.0 | 3.0 | 0.00 | 0.00 | 0.00 | 74 | 1008.9 |
| 20260506084929 | 40 | 58 | 2.0 | 3.0 | 0.00 | 0.00 | 0.00 | 73 | 1009.0 |
| 20260506084426 | 40 | 67 | 1.0 | 3.0 | 0.00 | 0.00 | 0.00 | 74 | 1008.7 |
| 20260506083922 | 41 | 100 | 3.0 | 3.0 | 0.00 | 0.00 | 0.00 | 74 | 1008.8 |
| 20260506083419 | 40 | 88 | 3.0 | 3.0 | 0.00 | 0.00 | 0.00 | 75 | 1008.9 |
| 20260506082917 | 41 | 93 | 1.0 | 3.0 | 0.00 | 0.00 | 0.00 | 74 | 1008.7 |
| 20260506082414 | 41 | 71 | 2.0 | 2.0 | 0.00 | 0.00 | 0.00 | 73 | 1008.8 |
| 20260506081909 | 41 | 97 | 2.0 | 3.0 | 0.00 | 0.00 | 0.00 | 72 | 1008.7 |
| 20260506081408 | 42 | 135 | 2.0 | 2.0 | 0.00 | 0.00 | 0.00 | 70 | 1008.8 |
| 20260506080905 | 42 | 122 | 1.0 | 3.0 | 0.00 | 0.00 | 0.00 | 69 | 1009.0 |
| 20260506080402 | 43 | 116 | 3.0 | 4.0 | 0.00 | 0.00 | 0.00 | 68 | 1008.8 |
| 20260506073345 | 44 | 86 | 2.0 | 2.0 | 0.00 | 0.00 | 0.00 | 67 | 1008.5 |
| 20260506072842 | 44 | 100 | 3.0 | 3.0 | 0.00 | 0.00 | 0.00 | 66 | 1008.7 |
| 20260506072340 | 44 | 102 | 2.0 | 3.0 | 0.00 | 0.00 | 0.00 | 67 | 1008.9 |
| 20260506071837 | 44 | 92 | 2.0 | 2.0 | 0.00 | 0.00 | 0.00 | 67 | 1008.7 |
| 20260506071335 | 44 | 70 | 2.0 | 3.0 | 0.00 | 0.00 | 0.00 | 66 | 1008.4 |
| 20260506070832 | 44 | 51 | 2.0 | 2.0 | 0.00 | 0.00 | 0.00 | 66 | 1008.7 |
| 20260506070329 | 44 | 82 | 2.0 | 2.0 | 0.00 | 0.00 | 0.00 | 66 | 1008.7 |
| 20260506062306 | 46 | 120 | 2.0 | 2.0 | 0.00 | 0.00 | 0.00 | 60 | 1008.4 |
| 20260506061802 | 46 | 145 | 0.0 | 1.0 | 0.00 | 0.00 | 0.00 | 59 | 1008.4 |
| 20260506061259 | 46 | 49 | 0.0 | 1.0 | 0.00 | 0.00 | 0.00 | 60 | 1008.5 |
| 20260506060757 | 46 | 58 | 2.0 | 2.0 | 0.00 | 0.00 | 0.00 | 57 | 1008.4 |
| 20260506060255 | 46 | 85 | 0.0 | 2.0 | 0.00 | 0.00 | 0.00 | 56 | 1008.4 |
| 20260506051226 | 47 | 95 | 2.0 | 3.0 | 0.00 | 0.00 | 0.00 | 58 | 1008.1 |
| 20260506050724 | 47 | 71 | 3.0 | 3.0 | 0.00 | 0.00 | 0.00 | 57 | 1008.2 |
| 20260506050221 | 47 | 112 | 2.0 | 2.0 | 0.00 | 0.00 | 0.00 | 57 | 1008.2 |
| 20260506044712 | 47 | 108 | 2.0 | 3.0 | 0.00 | 0.00 | 0.00 | 56 | 1008.2 |
| 20260506044209 | 47 | 88 | 2.0 | 2.0 | 0.00 | 0.00 | 0.00 | 52 | 1008.1 |
| 20260506043707 | 47 | 44 | 2.0 | 2.0 | 0.00 | 0.00 | 0.00 | 53 | 1008.2 |
| 20260506043204 | 47 | 51 | 2.0 | 2.0 | 0.00 | 0.00 | 0.00 | 55 | 1007.8 |
| 20260506042703 | 47 | 57 | 1.0 | 2.0 | 0.00 | 0.00 | 0.00 | 55 | 1007.9 |
| 20260506042200 | 47 | 44 | 2.0 | 2.0 | 0.00 | 0.00 | 0.00 | 54 | 1007.9 |
| 20260506041653 | 48 | 89 | 0.0 | 3.0 | 0.00 | 0.00 | 0.00 | 52 | 1007.7 |
| 20260506041149 | 48 | 101 | 2.0 | 3.0 | 0.00 | 0.00 | 0.00 | 52 | 1007.8 |
| 20260506040647 | 48 | 76 | 0.0 | 3.0 | 0.00 | 0.00 | 0.00 | 50 | 1007.7 |
| 20260506040143 | 49 | 91 | 2.0 | 3.0 | 0.00 | 0.00 | 0.00 | 51 | 1007.5 |
| 20260506035641 | 49 | 89 | 2.0 | 2.0 | 0.00 | 0.00 | 0.00 | 49 | 1007.2 |
| 20260506035137 | 50 | 105 | 2.0 | 3.0 | 0.00 | 0.00 | 0.00 | 47 | 1007.0 |
| 20260506034634 | 50 | 110 | 0.0 | 2.0 | 0.00 | 0.00 | 0.00 | 43 | 1006.9 |
| 20260506034131 | 50 | 101 | 2.0 | 3.0 | 0.00 | 0.00 | 0.00 | 45 | 1007.0 |
| 20260506033628 | 50 | 113 | 2.0 | 2.0 | 0.00 | 0.00 | 0.00 | 45 | 1007.0 |
| 20260506033125 | 50 | 108 | 1.0 | 2.0 | 0.00 | 0.00 | 0.00 | 44 | 1006.8 |
| 20260506032623 | 50 | 358 | 1.0 | 3.0 | 0.00 | 0.00 | 0.00 | 44 | 1006.9 |
| 20260506032119 | 51 | 113 | 1.0 | 2.0 | 0.00 | 0.00 | 0.00 | 43 | 1006.5 |
| 20260506031616 | 51 | 184 | 0.0 | 2.0 | 0.00 | 0.00 | 0.00 | 42 | 1006.4 |
| 20260506031113 | 51 | 201 | 1.0 | 1.0 | 0.00 | 0.00 | 0.00 | 41 | 1006.4 |
| 20260506030612 | 52 | 79 | 1.0 | 4.0 | 0.00 | 0.00 | 0.00 | 42 | 1006.4 |
| 20260506030109 | 52 | 236 | 1.0 | 4.0 | 0.00 | 0.00 | 0.00 | 42 | 1006.2 |
| 20260506025606 | 52 | 181 | 2.0 | 3.0 | 0.00 | 0.00 | 0.00 | 41 | 1005.9 |
| 20260506025102 | 52 | 176 | 0.0 | 3.0 | 0.00 | 0.00 | 0.00 | 45 | 1005.9 |
| 20260506024600 | 53 | 293 | 0.0 | 3.0 | 0.00 | 0.00 | 0.00 | 42 | 1005.9 |
| 20260506024056 | 53 | 82 | 1.0 | 3.0 | 0.00 | 0.00 | 0.00 | 41 | 1005.9 |
| 20260506023552 | 53 | 285 | 2.0 | 5.0 | 0.00 | 0.00 | 0.00 | 42 | 1005.8 |
| 20260506023050 | 53 | 322 | 2.0 | 3.0 | 0.00 | 0.00 | 0.00 | 41 | 1005.5 |
| 20260506022547 | 53 | 303 | 3.0 | 4.0 | 0.00 | 0.00 | 0.00 | 43 | 1005.4 |
| 20260506022044 | 53 | 311 | 4.0 | 4.0 | 0.00 | 0.00 | 0.00 | 43 | 1005.6 |
| 20260506021542 | 53 | 297 | 2.0 | 2.0 | 0.00 | 0.00 | 0.00 | 46 | 1005.5 |
| 20260506021039 | 53 | 35 | 0.0 | 2.0 | 0.00 | 0.00 | 0.00 | 43 | 1005.4 |
| 20260506020536 | 54 | 356 | 1.0 | 3.0 | 0.00 | 0.00 | 0.00 | 44 | 1005.4 |
| 20260506020033 | 55 | 298 | 1.0 | 4.0 | 0.00 | 0.00 | 0.00 | 42 | 1005.1 |
| 20260506015531 | 55 | 3 | 1.0 | 5.0 | 0.00 | 0.00 | 0.00 | 40 | 1004.9 |
| 20260506015028 | 55 | 314 | 2.0 | 5.0 | 0.00 | 0.00 | 0.00 | 39 | 1004.9 |
| 20260506014525 | 56 | 223 | 1.0 | 4.0 | 0.00 | 0.00 | 0.00 | 42 | 1004.9 |
| 20260506014021 | 57 | 17 | 1.0 | 3.0 | 0.00 | 0.00 | 0.00 | 41 | 1004.9 |
| 20260506013519 | 57 | 308 | 0.0 | 5.0 | 0.00 | 0.00 | 0.00 | 39 | 1004.8 |
| 20260506013016 | 58 | 254 | 6.0 | 6.0 | 0.00 | 0.00 | 0.00 | 37 | 1004.8 |
| 20260506012512 | 58 | 300 | 2.0 | 3.0 | 0.00 | 0.00 | 0.00 | 38 | 1004.8 |
| 20260506012009 | 58 | 247 | 3.0 | 5.0 | 0.00 | 0.00 | 0.00 | 38 | 1004.8 |
| 20260506011506 | 59 | 311 | 2.0 | 4.0 | 0.00 | 0.00 | 0.00 | 37 | 1004.5 |
| 20260506011002 | 59 | 279 | 3.0 | 5.0 | 0.00 | 0.00 | 0.00 | 37 | 1004.8 |
| 20260506010502 | 60 | 295 | 3.0 | 4.0 | 0.00 | 0.00 | 0.00 | 36 | 1004.5 |
| 20260506005957 | 59 | 298 | 3.0 | 4.0 | 0.00 | 0.00 | 0.00 | 36 | 1004.8 |
| 20260506005455 | 60 | 199 | 2.0 | 4.0 | 0.00 | 0.00 | 0.00 | 34 | 1004.9 |
| 20260506004950 | 60 | 298 | 5.0 | 9.0 | 0.00 | 0.00 | 0.00 | 35 | 1004.7 |
| 20260506004449 | 60 | 288 | 4.0 | 5.0 | 0.00 | 0.00 | 0.00 | 35 | 1005.1 |
| 20260506003944 | 61 | 281 | 4.0 | 7.0 | 0.00 | 0.00 | 0.00 | 35 | 1005.0 |
| 20260506003441 | 61 | 221 | 2.0 | 3.0 | 0.00 | 0.00 | 0.00 | 34 | 1004.8 |
| 20260506002937 | 61 | 272 | 2.0 | 6.0 | 0.00 | 0.00 | 0.00 | 34 | 1005.0 |
| 20260506002433 | 60 | 333 | 0.0 | 4.0 | 0.00 | 0.00 | 0.00 | 35 | 1004.8 |
| 20260506001929 | 62 | 307 | 3.0 | 4.0 | 0.00 | 0.00 | 0.00 | 35 | 1004.8 |
| 20260506001426 | 61 | 265 | 1.0 | 5.0 | 0.00 | 0.00 | 0.00 | 34 | 1005.0 |
| 20260506000923 | 61 | 353 | 2.0 | 8.0 | 0.00 | 0.00 | 0.00 | 35 | 1005.1 |
| 20260506000423 | 61 | 246 | 0.0 | 2.0 | 0.00 | 0.00 | 0.00 | 38 | 1004.9 |
| 20260505235917 | 58 | 284 | 2.0 | 2.0 | 0.00 | 0.00 | 0.00 | 40 | 1004.9 |
| 20260505235416 | 58 | 353 | 1.0 | 3.0 | 0.00 | 0.00 | 0.00 | 42 | 1005.1 |
| 20260505234912 | 57 | 264 | 2.0 | 4.0 | 0.00 | 0.00 | 0.00 | 41 | 1005.0 |
| 20260505234410 | 57 | 297 | 3.0 | 3.0 | 0.00 | 0.00 | 0.00 | 41 | 1005.2 |
| 20260505233906 | 57 | 308 | 4.0 | 4.0 | 0.00 | 0.00 | 0.00 | 39 | 1005.0 |
| 20260505233404 | 58 | 298 | 2.0 | 4.0 | 0.00 | 0.00 | 0.00 | 38 | 1005.4 |
| 20260505232901 | 58 | 269 | 3.0 | 4.0 | 0.00 | 0.00 | 0.00 | 38 | 1005.2 |
| 20260505232359 | 59 | 285 | 2.0 | 4.0 | 0.00 | 0.00 | 0.00 | 38 | 1005.1 |
| 20260505231855 | 58 | 319 | 2.0 | 7.0 | 0.00 | 0.00 | 0.00 | 38 | 1005.0 |
| 20260505231353 | 59 | 314 | 5.0 | 5.0 | 0.00 | 0.00 | 0.00 | 37 | 1005.1 |
| 20260505230851 | 59 | 234 | 3.0 | 4.0 | 0.00 | 0.00 | 0.00 | 36 | 1005.1 |
| 20260505230348 | 59 | 305 | 4.0 | 6.0 | 0.00 | 0.00 | 0.00 | 36 | 1005.1 |
| 20260505225845 | 59 | 314 | 5.0 | 7.0 | 0.00 | 0.00 | 0.00 | 36 | 1005.0 |
| 20260505225342 | 59 | 325 | 2.0 | 5.0 | 0.00 | 0.00 | 0.00 | 32 | 1004.9 |
| 20260505224837 | 60 | 343 | 5.0 | 8.0 | 0.00 | 0.00 | 0.00 | 33 | 1004.9 |
| 20260505224335 | 60 | 292 | 7.0 | 8.0 | 0.00 | 0.00 | 0.00 | 34 | 1005.2 |
| 20260505223832 | 60 | 280 | 3.0 | 7.0 | 0.00 | 0.00 | 0.00 | 35 | 1005.1 |
| 20260505223329 | 62 | 301 | 4.0 | 4.0 | 0.00 | 0.00 | 0.00 | 30 | 1005.0 |
| 20260505222825 | 63 | 278 | 3.0 | 6.0 | 0.00 | 0.00 | 0.00 | 32 | 1005.1 |
| 20260505222321 | 64 | 272 | 2.0 | 6.0 | 0.00 | 0.00 | 0.00 | 29 | 1004.8 |
| 20260505221818 | 67 | 279 | 4.0 | 6.0 | 0.00 | 0.00 | 0.00 | 28 | 1004.9 |
| 20260505221315 | 68 | 290 | 3.0 | 7.0 | 0.00 | 0.00 | 0.00 | 28 | 1005.0 |
| 20260505220812 | 68 | 290 | 2.0 | 5.0 | 0.00 | 0.00 | 0.00 | 28 | 1004.9 |
| 20260505220309 | 67 | 274 | 4.0 | 8.0 | 0.00 | 0.00 | 0.00 | 30 | 1005.0 |
| 20260505215807 | 65 | 136 | 7.0 | 11.0 | 0.00 | 0.00 | 0.00 | 27 | 1005.0 |
| 20260505215305 | 64 | 272 | 3.0 | 11.0 | 0.00 | 0.00 | 0.00 | 28 | 1005.5 |
| 20260505214802 | 66 | 148 | 4.0 | 6.0 | 0.00 | 0.00 | 0.00 | 24 | 1005.4 |
| 20260505214300 | 66 | 283 | 4.0 | 9.0 | 0.00 | 0.00 | 0.00 | 30 | 1005.2 |
| 20260505213756 | 67 | 318 | 3.0 | 6.0 | 0.00 | 0.00 | 0.00 | 27 | 1005.1 |
| 20260505213254 | 67 | 289 | 3.0 | 6.0 | 0.00 | 0.00 | 0.00 | 27 | 1005.5 |
| 20260505212749 | 67 | 237 | 2.0 | 4.0 | 0.00 | 0.00 | 0.00 | 29 | 1005.6 |
| 20260505212247 | 66 | 261 | 4.0 | 8.0 | 0.00 | 0.00 | 0.00 | 29 | 1005.6 |
| 20260505211744 | 66 | 209 | 3.0 | 6.0 | 0.00 | 0.00 | 0.00 | 27 | 1005.6 |
| 20260505211241 | 65 | 248 | 3.0 | 11.0 | 0.00 | 0.00 | 0.00 | 28 | 1005.5 |
| 20260505210737 | 65 | 254 | 2.0 | 6.0 | 0.00 | 0.00 | 0.00 | 29 | 1005.7 |
| 20260505210234 | 64 | 225 | 4.0 | 7.0 | 0.00 | 0.00 | 0.00 | 28 | 1006.1 |
| 20260505205732 | 65 | 299 | 3.0 | 8.0 | 0.00 | 0.00 | 0.00 | 29 | 1006.1 |
| 20260505205230 | 66 | 237 | 3.0 | 7.0 | 0.00 | 0.00 | 0.00 | 30 | 1006.2 |
| 20260505204726 | 65 | 154 | 3.0 | 8.0 | 0.00 | 0.00 | 0.00 | 30 | 1005.9 |
| 20260505204224 | 63 | 215 | 7.0 | 16.0 | 0.00 | 0.00 | 0.00 | 30 | 1005.9 |
| 20260505203721 | 64 | 194 | 6.0 | 12.0 | 0.00 | 0.00 | 0.00 | 27 | 1006.1 |
| 20260505203218 | 64 | 256 | 2.0 | 8.0 | 0.00 | 0.00 | 0.00 | 29 | 1006.1 |
| 20260505202713 | 62 | 238 | 4.0 | 15.0 | 0.00 | 0.00 | 0.00 | 35 | 1006.2 |
| 20260505202210 | 64 | 292 | 3.0 | 12.0 | 0.00 | 0.00 | 0.00 | 33 | 1005.9 |
| 20260505201706 | 62 | 119 | 1.0 | 9.0 | 0.00 | 0.00 | 0.00 | 30 | 1006.3 |
| 20260505201204 | 63 | 259 | 5.0 | 10.0 | 0.00 | 0.00 | 0.00 | 32 | 1006.2 |
| 20260505200702 | 63 | 264 | 5.0 | 11.0 | 0.00 | 0.00 | 0.00 | 35 | 1006.2 |
| 20260505200159 | 62 | 239 | 2.0 | 10.0 | 0.00 | 0.00 | 0.00 | 32 | 1006.3 |
| 20260505195654 | 64 | 276 | 3.0 | 5.0 | 0.00 | 0.00 | 0.00 | 31 | 1006.3 |
| 20260505195152 | 63 | 240 | 5.0 | 10.0 | 0.00 | 0.00 | 0.00 | 33 | 1006.5 |
| 20260505194649 | 61 | 172 | 2.0 | 10.0 | 0.00 | 0.00 | 0.00 | 34 | 1006.4 |
| 20260505194145 | 63 | 232 | 2.0 | 5.0 | 0.00 | 0.00 | 0.00 | 34 | 1006.5 |
| 20260505193642 | 60 | 254 | 2.0 | 10.0 | 0.00 | 0.00 | 0.00 | 38 | 1006.7 |
| 20260505193139 | 60 | 243 | 3.0 | 9.0 | 0.00 | 0.00 | 0.00 | 35 | 1006.8 |
| 20260505192638 | 61 | 152 | 2.0 | 6.0 | 0.00 | 0.00 | 0.00 | 36 | 1006.9 |
| 20260505192135 | 60 | 269 | 4.0 | 7.0 | 0.00 | 0.00 | 0.00 | 36 | 1006.5 |
| 20260505191633 | 60 | 188 | 4.0 | 9.0 | 0.00 | 0.00 | 0.00 | 36 | 1006.9 |
| 20260505191131 | 59 | 137 | 5.0 | 13.0 | 0.00 | 0.00 | 0.00 | 35 | 1006.9 |
| 20260505190627 | 59 | 208 | 6.0 | 7.0 | 0.00 | 0.00 | 0.00 | 36 | 1006.9 |
| 20260505190121 | 60 | 174 | 0.0 | 8.0 | 0.00 | 0.00 | 0.00 | 37 | 1006.8 |
| 20260505185619 | 58 | 141 | 2.0 | 11.0 | 0.00 | 0.00 | 0.00 | 38 | 1006.8 |
| 20260505185115 | 60 | 306 | 4.0 | 8.0 | 0.00 | 0.00 | 0.00 | 35 | 1006.9 |
| 20260505184611 | 61 | 255 | 4.0 | 10.0 | 0.00 | 0.00 | 0.00 | 39 | 1007.1 |
| 20260505184108 | 61 | 257 | 3.0 | 6.0 | 0.00 | 0.00 | 0.00 | 38 | 1006.9 |
| 20260505183605 | 61 | 258 | 3.0 | 6.0 | 0.00 | 0.00 | 0.00 | 39 | 1007.0 |
| 20260505183103 | 60 | 154 | 6.0 | 7.0 | 0.00 | 0.00 | 0.00 | 36 | 1007.1 |
| 20260505182559 | 60 | 235 | 3.0 | 4.0 | 0.00 | 0.00 | 0.00 | 41 | 1007.1 |
| 20260505182056 | 59 | 158 | 7.0 | 8.0 | 0.00 | 0.00 | 0.00 | 36 | 1007.1 |
| 20260505181552 | 59 | 307 | 3.0 | 5.0 | 0.00 | 0.00 | 0.00 | 39 | 1007.0 |
| 20260505181050 | 58 | 240 | 5.0 | 6.0 | 0.00 | 0.00 | 0.00 | 39 | 1007.2 |
| 20260505180545 | 59 | 216 | 4.0 | 8.0 | 0.00 | 0.00 | 0.00 | 38 | 1007.1 |
| 20260505180043 | 58 | 143 | 5.0 | 6.0 | 0.00 | 0.00 | 0.00 | 38 | 1007.1 |
| 20260505175538 | 59 | 222 | 1.0 | 4.0 | 0.00 | 0.00 | 0.00 | 39 | 1007.2 |
| 20260505175035 | 60 | 240 | 3.0 | 4.0 | 0.00 | 0.00 | 0.00 | 38 | 1007.4 |
| 20260505174532 | 60 | 297 | 4.0 | 4.0 | 0.00 | 0.00 | 0.00 | 41 | 1007.4 |
| 20260505174028 | 57 | 259 | 5.0 | 5.0 | 0.00 | 0.00 | 0.00 | 41 | 1007.2 |
| 20260505173525 | 57 | 246 | 3.0 | 6.0 | 0.00 | 0.00 | 0.00 | 44 | 1007.4 |
| 20260505173021 | 57 | 272 | 2.0 | 7.0 | 0.00 | 0.00 | 0.00 | 43 | 1007.4 |
| 20260505172519 | 57 | 238 | 4.0 | 7.0 | 0.00 | 0.00 | 0.00 | 40 | 1007.4 |
| 20260505172014 | 56 | 232 | 2.0 | 6.0 | 0.00 | 0.00 | 0.00 | 41 | 1007.2 |
| 20260505171505 | 57 | 205 | 6.0 | 6.0 | 0.00 | 0.00 | 0.00 | 39 | 1007.2 |
| 20260505171002 | 58 | 208 | 4.0 | 5.0 | 0.00 | 0.00 | 0.00 | 37 | 1007.5 |
| 20260505170458 | 58 | 266 | 2.0 | 5.0 | 0.00 | 0.00 | 0.00 | 39 | 1007.5 |
| 20260505165953 | 59 | 311 | 3.0 | 5.0 | 0.00 | 0.00 | 0.00 | 40 | 1007.2 |
| 20260505165444 | 58 | 195 | 4.0 | 9.0 | 0.00 | 0.00 | 0.00 | 40 | 1007.2 |
| 20260505164939 | 58 | 195 | 1.0 | 4.0 | 0.00 | 0.00 | 0.00 | 37 | 1007.4 |
| 20260505164436 | 57 | 264 | 2.0 | 4.0 | 0.00 | 0.00 | 0.00 | 42 | 1007.4 |
| 20260505163934 | 57 | 281 | 7.0 | 9.0 | 0.00 | 0.00 | 0.00 | 40 | 1007.1 |
| 20260505163432 | 56 | 142 | 9.0 | 14.0 | 0.00 | 0.00 | 0.00 | 38 | 1007.5 |
| 20260505162926 | 57 | 174 | 2.0 | 4.0 | 0.00 | 0.00 | 0.00 | 41 | 1007.4 |
| 20260505162421 | 56 | 177 | 2.0 | 5.0 | 0.00 | 0.00 | 0.00 | 40 | 1007.4 |
| 20260505161918 | 55 | 269 | 5.0 | 6.0 | 0.00 | 0.00 | 0.00 | 45 | 1007.4 |
| 20260505161415 | 56 | 176 | 4.0 | 5.0 | 0.00 | 0.00 | 0.00 | 40 | 1007.5 |
| 20260505160913 | 53 | 184 | 2.0 | 8.0 | 0.00 | 0.00 | 0.00 | 43 | 1007.2 |
| 20260505160410 | 54 | 272 | 2.0 | 6.0 | 0.00 | 0.00 | 0.00 | 44 | 1007.5 |
| 20260505153344 | 54 | 241 | 2.0 | 2.0 | 0.00 | 0.00 | 0.00 | 42 | 1007.2 |
| 20260505152840 | 52 | 303 | 2.0 | 3.0 | 0.00 | 0.00 | 0.00 | 46 | 1007.4 |
| 20260505152337 | 51 | 211 | 1.0 | 7.0 | 0.00 | 0.00 | 0.00 | 45 | 1007.4 |
| 20260505151831 | 52 | 324 | 1.0 | 4.0 | 0.00 | 0.00 | 0.00 | 44 | 1007.2 |
| 20260505151328 | 50 | 308 | 2.0 | 4.0 | 0.00 | 0.00 | 0.00 | 46 | 1007.4 |
| 20260505150825 | 49 | 224 | 2.0 | 2.0 | 0.00 | 0.00 | 0.00 | 47 | 1007.2 |
| 20260505150322 | 50 | 50 | 2.0 | 2.0 | 0.00 | 0.00 | 0.00 | 48 | 1007.5 |
| 20260505140246 | 40 | 53 | 3.0 | 6.0 | 0.00 | 0.00 | 0.00 | 60 | 1007.5 |